Location: Newark
(21.0333°N, 105.8500°E)
Time: 01:43:09
(UTC+00:00)

Envisat - Pass Details

Date: 08 December 2019
Orbit: 764 x 766 km, 98.1° (Epoch: 23 January)

Event Time Altitude Azimuth Distance (km) Brightness Sun altitude
Rises 12:02:28 0° 198° (SSW) 3,215 6.7 -24.3°
Reaches altitude 10° 12:05:18 10° 214° (SW) 2,291 6.1 -25.0°
Maximum altitude 12:09:01 21° 262° (W) 1,672 5.5 -25.8°
Drops below altitude 10° 12:12:46 10° 310° (NW) 2,297 5.8 -26.6°
Sets 12:15:38 0° 327° (NNW) 3,225 6.5 -27.3°
